Temp_Advection
nan nan nan nan nan nan nan nan nan nan nan nan nan nan nan nan nan nan nan nan nan nan nan nan nan nan nan nan nan nan nan nan nan nan nan nan nan nan nan nan nan nan nan nan nan
nan 0 -0 -0 -0 -0 -0 -0 -0 -0 -0 -0 -0 -0 -1 -1 -1 -1 -0 -1 0 1 0 0 0 0 0 0 0 0 0 -1 -0 -0 -0 0 -0 -0 -0 -0 -0 0 0 1 nan
nan -0 -0 -0 0 -0 -0 0 0 0 0 -0 -0 -1 -1 -2 -1 -0 -0 -0 -0 -0 1 1 0 0 0 0 0 -0 -1 -1 -0 0 -0 0 -0 0 -0 -0 -0 0 0 1 nan
nan 0 -0 -0 -0 0 -0 0 0 0 0 0 0 -0 -1 -2 -1 -0 0 -0 0 0 0 0 0 0 0 0 0 0 -1 -0 0 0 0 0 0 -0 0 -0 -0 -1 -0 -1 nan
nan -0 -0 -0 -0 -0 -0 -0 -0 -0 -0 0 1 1 -0 -1 -4 -2 0 -1 -0 0 0 -0 0 0 -0 -0 0 -0 -0 -0 -0 0 0 1 -0 -0 0 1 1 -0 -1 -2 nan
nan -0 -0 -0 -0 -0 -0 0 -0 -0 -0 0 1 1 1 -2 -2 -0 -0 0 -0 -0 -0 -0 -0 -0 -0 -0 -0 -0 -0 -0 0 1 1 -0 0 0 0 1 1 0 -1 -1 nan
nan -0 -0 -0 -0 -0 -0 -0 -0 -0 -0 0 1 1 -1 -6 -2 0 -1 -1 1 1 -0 -1 -0 0 -0 -0 -1 0 0 -0 0 1 0 -0 -0 0 -0 0 1 -1 0 2 nan
nan -0 -1 -1 -1 -1 -1 -1 -1 -0 -0 -0 1 1 -1 -2 -0 -0 -0 -1 -0 0 0 -0 0 -0 -0 -0 0 0 0 0 0 0 0 0 0 0 1 0 0 1 2 2 nan
nan -0 -0 -1 -1 -1 -1 -0 -0 -0 -0 -0 0 0 -1 -1 -0 -0 0 -1 -1 -0 -0 0 0 0 0 0 0 0 0 -1 0 0 0 1 0 0 1 0 0 1 1 0 nan
nan 0 -0 -0 -0 -1 -1 -0 0 -0 -0 0 0 -0 -1 -0 0 0 0 0 -0 -0 1 0 0 0 0 0 -0 -0 -0 -0 0 -0 -0 0 0 -0 -0 0 0 -0 0 0 nan
nan 0 0 0 0 0 -1 -1 -1 -0 -1 -0 -0 -0 -1 -1 -1 0 0 -0 -0 0 0 0 0 -1 -2 -1 -0 -0 -0 -0 -0 -0 -0 0 0 0 -1 -0 -0 0 0 0 nan
nan -0 -0 0 -0 -0 -0 -1 -1 -0 -1 -2 0 -1 -0 1 -1 -0 -0 -0 0 0 0 0 -1 -1 -0 0 -0 -0 -0 -0 -0 0 -0 0 -0 -0 0 0 -0 0 0 0 nan
nan -0 -0 -0 -0 -0 -0 -0 0 0 -0 -2 -1 -0 0 1 -0 -0 -0 -1 -0 -0 -0 -0 -0 -0 0 -0 -0 -0 -0 0 0 -0 -0 -0 0 -0 0 0 -0 -0 -0 -0 nan
nan -0 -0 -0 -0 0 -0 0 0 0 -0 -1 -0 0 -0 1 -0 -1 -0 -0 -0 -0 -0 -0 -0 0 0 -0 -0 -1 -1 -0 0 -0 -0 0 -0 -0 -0 -0 -0 -0 0 -0 nan
nan -0 -0 -0 -0 0 1 0 0 0 -0 -1 -0 -0 -1 -0 -0 -0 -0 0 -0 -0 -0 -0 -0 -0 -0 -1 -0 -1 0 -0 0 0 -0 0 -0 0 -0 -0 -0 -0 -0 0 nan
nan -0 -0 0 -0 0 1 0 -0 -1 -1 -0 -0 -0 -1 -0 -0 -1 -0 -0 0 0 0 -0 -0 -0 -0 -0 -0 -0 0 0 0 0 0 -0 -0 -0 -0 -1 -0 -0 -0 1 nan
nan -0 0 0 0 0 0 -0 -1 0 -0 -0 -0 -0 -0 -1 -0 -0 -0 -0 -0 0 -0 0 0 -0 -0 0 0 1 -0 0 0 0 -0 0 0 -0 -1 -0 -0 -0 1 1 nan
nan -0 0 -0 0 0 0 -1 -0 0 -0 -1 -0 -0 -0 -0 -0 -0 -0 -0 -0 -0 0 0 -0 0 0 -0 0 0 0 -0 -0 -0 -0 -0 -0 -0 -0 -0 0 1 1 0 nan
nan 0 -0 -0 -0 -0 -0 -1 -0 -0 -0 -0 -0 -0 -0 -1 -0 -0 -0 -1 -0 -0 -0 -0 -0 -0 -0 -0 -0 -0 -0 -0 -0 -0 -0 -0 -0 -0 1 0 0 0 0 0 nan
nan 0 -1 -0 -0 -0 -1 0 0 0 -0 -0 -0 -0 -0 -0 -0 -0 -0 -0 -1 -0 0 -0 -1 -0 -0 0 0 -0 0 0 -0 0 -0 0 0 0 0 0 0 0 0 -0 nan
nan -0 -1 -1 -1 -4 -0 -0 -0 -0 -0 -0 -0 -0 -0 -0 -0 -0 -0 -0 -1 -2 -1 -0 -0 -0 0 -0 -0 0 0 0 -0 0 0 0 -0 -0 0 -0 -0 -0 0 -0 nan
nan -0 -0 -1 -2 -1 0 -0 -0 -1 -0 -0 -0 -0 -0 -0 -0 -0 -0 0 0 -1 -1 -0 -0 -1 -0 -0 -0 -0 0 -0 0 0 0 0 -0 -0 -0 0 0 -0 0 0 nan
nan -0 -0 -4 -1 0 -0 -0 -0 -0 -0 -0 0 -0 -0 -0 -0 -0 -0 0 1 0 0 -1 -0 -0 0 -0 0 -0 -0 -0 -0 0 -0 -0 -0 -0 -0 -0 0 0 -0 0 nan
nan -0 -0 -2 -0 0 -0 -0 -0 -0 -0 -0 -0 -0 -1 -0 -0 0 -0 -0 0 -0 0 -0 -0 -0 -0 0 -0 0 -0 0 -0 -0 -0 -0 0 -0 -1 0 0 -0 -0 -0 nan
nan -0 -0 -0 -0 -0 -0 -0 -0 -0 -0 -0 -0 -0 -0 -0 -1 -0 -0 -1 -0 0 -0 -0 -0 -1 -1 -1 -1 0 0 0 0 0 -0 -0 -0 -1 -1 -2 -0 1 0 0 nan
nan -0 -0 0 -0 0 -0 -0 -0 -0 -0 -0 -0 -0 -0 -0 0 -0 -1 -0 -0 -0 -0 -0 -0 -1 -0 -1 -0 -1 -1 -0 -1 -0 0 0 -1 -1 -1 -1 -2 -2 1 0 nan
nan nan nan nan nan nan nan nan nan nan nan nan nan nan nan nan nan nan nan nan nan nan nan nan nan nan nan nan nan nan nan nan nan nan nan nan nan nan nan nan nan nan nan nan nan
Wind_Speed
18 18 18 18 18 19 20 21 22 23 24 23 23 24 26 29 30 28 29 24 21 16 22 11 9 8 19 15 15 10 3 7 15 8 3 1 3 5 5 20 8 18 9 14 35
16 17 18 18 19 19 20 20 20 20 21 23 25 27 27 28 29 31 20 16 18 19 20 22 17 7 9 11 12 6 5 10 6 7 3 2 3 2 6 8 4 13 9 25 39
18 18 19 20 21 22 23 23 24 24 25 24 24 25 27 27 25 2 3 5 11 5 23 20 22 17 10 10 13 8 7 8 7 9 4 3 2 1 15 1 9 20 27 35 33
16 17 18 19 20 21 21 22 24 25 26 26 26 26 23 18 6 3 5 8 10 17 9 18 16 14 7 8 11 4 13 5 10 9 4 3 4 3 4 4 23 30 36 29 29
16 17 18 19 19 19 20 20 21 21 23 25 25 24 18 11 19 24 23 26 30 27 14 22 17 19 7 6 5 5 2 13 14 7 13 9 2 5 0 18 30 37 42 36 9
17 19 19 20 20 21 22 21 21 22 23 24 25 23 16 10 21 19 32 29 19 11 12 14 12 19 13 6 12 7 12 10 7 25 16 7 3 5 7 23 34 40 40 24 39
19 20 21 21 22 23 23 22 21 23 23 22 22 16 13 38 31 30 32 27 23 13 15 14 19 18 9 2 17 7 3 11 19 9 6 18 4 5 15 27 30 36 32 33 35
21 22 23 24 24 24 24 23 23 21 20 18 15 8 13 27 22 17 11 11 12 21 18 16 19 13 6 3 1 7 3 8 5 13 9 15 8 6 26 26 28 35 29 23 28
22 23 22 24 24 22 24 23 21 17 13 14 10 7 15 15 17 9 16 21 18 11 22 10 14 13 4 4 0 4 5 16 2 14 8 8 4 7 31 26 23 19 22 22 26
22 22 21 24 22 20 25 26 14 11 6 11 6 5 10 14 27 32 29 20 14 6 15 13 9 6 3 5 13 5 4 6 12 7 5 8 4 14 31 28 24 17 19 26 29
22 22 20 23 20 19 28 19 10 2 20 10 17 16 24 26 30 25 16 16 18 9 7 10 5 14 24 14 3 6 5 5 6 7 7 14 8 15 25 20 16 18 23 26 27
22 20 19 22 15 21 16 10 9 11 14 23 19 23 20 16 16 20 10 12 7 6 7 4 16 10 8 10 10 9 5 4 4 9 5 10 10 17 18 25 31 29 29 28 26
22 16 17 19 9 19 19 16 12 10 5 14 13 14 12 13 8 10 11 10 5 7 9 9 4 15 11 9 17 17 11 4 2 6 4 10 2 13 14 11 15 16 21 20 25
20 14 16 18 8 20 15 21 17 8 4 6 5 2 14 23 6 15 12 8 5 13 7 7 8 9 9 13 14 18 11 4 2 2 5 3 4 11 14 13 13 18 24 27 30
18 13 14 16 16 17 22 22 7 2 5 11 7 11 32 4 14 5 14 9 6 5 7 8 8 9 8 14 15 9 10 12 3 2 3 3 5 4 16 15 17 18 27 29 32
16 9 13 19 22 23 22 14 4 5 6 5 9 16 17 8 7 16 8 8 6 5 3 9 4 6 11 8 12 6 8 5 3 4 3 9 5 5 16 23 18 21 30 32 32
13 6 14 19 27 21 19 2 4 4 7 7 9 15 16 11 7 8 6 6 3 2 6 2 6 3 5 5 5 9 7 3 2 1 8 8 6 7 20 22 24 25 34 34 34
8 1 15 18 21 19 14 4 5 5 9 15 8 13 6 14 7 9 8 6 6 6 2 6 3 8 4 6 6 6 11 5 8 10 7 4 7 5 24 34 42 37 39 37 39
9 5 23 20 19 14 5 5 1 7 11 9 9 5 5 12 8 9 7 10 6 9 3 3 8 3 8 5 9 6 7 8 4 2 5 5 2 3 13 22 23 28 25 32 38
9 0 31 22 16 10 6 4 5 15 14 9 8 7 7 8 10 10 8 5 11 13 11 4 4 7 6 5 5 8 7 4 1 5 5 2 4 6 8 19 21 18 26 34 37
7 5 31 21 10 19 3 4 3 17 18 11 10 7 8 6 9 7 10 3 12 19 13 4 2 3 7 6 9 4 4 4 5 3 6 3 5 6 11 16 19 19 33 37 38
17 4 29 12 12 4 3 6 13 14 13 8 8 12 9 8 5 5 8 6 16 20 10 2 3 4 6 1 6 7 9 6 5 5 2 4 4 2 8 13 19 24 31 38 44
5 5 25 27 4 4 6 7 10 11 10 9 7 7 13 5 6 7 7 8 13 10 11 8 3 3 1 3 0 5 5 6 4 5 5 5 5 3 2 5 13 20 25 32 37
5 4 10 15 13 3 4 8 12 13 7 15 7 11 15 10 5 6 12 7 26 12 17 12 4 3 2 0 2 6 5 6 7 5 5 4 5 6 7 1 6 16 21 27 34
7 3 4 4 7 6 7 8 11 13 6 9 5 10 11 6 10 5 5 14 12 3 8 4 4 10 11 11 7 2 5 9 4 6 8 6 7 4 11 12 4 20 18 23 27
6 6 6 6 8 6 7 8 13 14 5 9 10 16 10 6 4 11 15 6 7 5 9 7 4 7 4 5 7 12 15 8 8 5 5 10 5 11 12 21 23 16 16 22 28
14 9 2 4 7 4 4 10 13 17 9 11 14 15 14 10 16 27 27 23 17 9 8 5 5 7 3 4 4 9 14 11 12 14 4 6 6 13 11 14 20 24 8 14 26
Wind_Direction
350 348 346 342 339 337 336 333 331 329 326 324 322 319 315 313 313 311 298 298 282 263 252 248 219 225 215 205 194 184 159 193 224 162 204 249 58 67 120 141 155 172 187 196 170
348 345 344 341 340 339 336 332 329 325 322 321 320 319 315 315 316 309 311 304 257 230 239 231 218 232 187 199 198 164 190 202 219 164 191 143 32 118 118 134 82 153 165 173 162
350 348 344 343 341 338 335 333 330 328 326 322 318 314 313 319 327 248 358 53 74 253 212 225 233 232 216 195 192 192 199 201 193 146 202 317 359 284 137 132 172 147 137 148 157
349 346 343 340 336 332 328 325 324 324 322 320 318 315 316 316 294 313 280 343 339 323 248 211 218 198 191 209 199 187 229 201 165 130 197 198 155 74 214 230 163 144 147 140 158
351 346 343 340 334 327 324 321 318 315 312 311 311 313 315 284 261 286 283 290 283 284 290 211 206 200 188 204 209 224 212 215 224 192 210 178 113 145 122 148 154 149 154 144 187
351 348 346 343 337 330 325 321 319 315 310 307 304 303 296 274 310 307 301 298 311 299 263 220 214 204 220 220 196 210 232 237 192 219 200 135 155 154 183 168 158 152 162 178 188
351 349 347 344 337 329 324 325 324 317 312 310 303 287 267 265 291 290 290 287 279 261 249 248 206 205 208 192 233 215 191 234 236 172 185 138 167 233 178 172 173 176 177 184 198
350 349 347 345 340 331 330 339 328 320 317 321 311 257 260 299 307 319 311 318 297 252 247 238 225 221 214 268 118 202 159 226 195 169 189 169 208 219 182 175 185 184 197 181 177
347 347 349 346 342 332 338 343 327 319 328 335 324 303 270 320 309 322 321 330 333 253 218 194 214 212 199 113 96 213 209 218 166 186 147 169 176 190 182 189 198 198 190 182 181
346 345 348 347 343 337 342 343 318 307 316 326 321 299 286 310 298 284 279 300 325 250 185 193 184 163 151 160 205 190 199 191 201 183 131 158 178 170 181 192 193 198 197 190 185
346 343 348 348 345 341 340 358 2 300 310 259 274 270 299 318 311 308 258 254 292 212 162 180 161 204 207 212 248 183 198 195 186 197 127 185 162 183 185 195 193 201 201 191 187
344 343 348 351 3 3 6 45 19 321 303 304 282 272 307 311 305 336 174 193 176 199 128 129 218 196 155 177 223 257 218 220 219 167 121 176 190 189 188 201 195 192 198 193 184
345 347 349 354 8 11 19 15 352 332 287 296 294 279 328 313 280 305 197 180 173 166 191 191 225 173 181 178 199 222 222 167 147 117 53 126 54 173 203 218 200 200 206 193 191
344 345 353 360 360 354 4 345 332 320 308 282 323 348 338 322 270 310 274 223 182 190 166 232 247 172 209 198 188 212 204 189 250 76 173 202 186 191 194 204 200 192 199 197 194
342 340 353 360 345 347 335 335 326 172 0 326 322 321 331 303 295 7 311 233 211 173 152 221 184 187 193 216 197 209 163 198 204 184 122 210 111 211 179 204 207 194 201 204 199
342 351 352 352 346 338 336 340 128 45 265 340 324 335 335 337 328 326 353 245 252 188 198 218 204 185 180 190 185 169 144 145 112 140 255 200 139 241 185 200 202 209 205 204 198
346 355 352 353 346 341 338 357 29 121 330 349 323 329 317 343 324 346 338 346 53 162 236 182 220 238 130 140 171 183 136 131 154 124 226 169 191 223 194 195 200 206 207 203 196
342 96 7 359 353 342 344 55 66 342 317 330 316 314 324 5 340 327 18 8 9 357 203 179 230 165 184 166 184 191 201 156 167 198 193 113 204 237 188 193 207 209 201 195 194
346 267 2 3 353 343 353 52 158 346 325 308 327 334 341 347 337 350 12 353 25 8 12 338 224 223 167 157 144 222 193 213 109 55 110 199 239 350 180 190 208 212 198 196 194
2 288 12 357 346 349 65 55 18 355 334 326 6 23 355 328 343 329 22 38 350 357 339 286 294 214 212 127 209 165 170 170 0 140 179 232 194 188 176 194 195 198 190 195 198
32 65 6 8 35 55 83 335 335 351 4 4 354 354 343 338 315 334 11 344 8 343 331 327 276 278 130 178 170 140 169 159 136 136 177 155 247 219 184 197 187 193 192 191 191
47 51 15 21 52 27 29 346 327 340 7 28 351 346 350 309 306 15 358 331 333 338 330 319 305 278 208 179 159 162 180 149 174 233 299 144 285 270 234 190 185 189 188 192 195
58 59 30 50 58 354 327 2 354 351 348 0 336 351 337 306 317 331 343 339 337 339 352 338 282 285 195 12 57 153 170 158 119 111 199 119 265 313 188 172 193 190 185 186 189
41 23 9 37 40 15 347 355 353 351 336 354 312 359 345 325 333 298 337 326 323 321 346 342 257 321 240 179 338 156 163 168 141 144 157 195 123 26 8 110 179 196 193 188 186
43 50 16 342 353 349 359 3 354 357 324 349 318 343 336 303 315 327 311 329 321 17 353 47 291 345 289 272 260 218 176 163 147 160 163 198 112 352 332 321 304 208 189 177 181
49 19 358 343 339 354 355 351 340 343 303 320 325 317 305 276 263 300 304 309 283 328 357 350 296 319 274 294 93 61 19 69 55 13 58 133 104 357 344 14 16 0 186 176 182
36 25 23 350 347 354 355 345 325 333 296 294 313 307 305 289 295 286 277 264 260 295 315 305 344 339 241 360 334 33 7 67 80 42 349 67 4 352 348 356 360 354 349 186 192
Height
1504 1502 1500 1498 1496 1494 1491 1489 1487 1485 1482 1480 1478 1476 1473 1470 1467 1466 1464 1465 1466 1469 1469 1472 1472 1473 1476 1478 1481 1481 1491 1493 1482 1489 1487 1484 1482 1484 1485 1485 1489 1490 1493 1497 1502
1504 1502 1499 1496 1494 1492 1490 1487 1485 1483 1481 1478 1475 1472 1470 1468 1465 1463 1459 1456 1456 1460 1465 1468 1471 1473 1473 1474 1476 1475 1486 1481 1474 1480 1482 1482 1483 1483 1485 1488 1490 1492 1493 1497 1504
1503 1500 1497 1495 1492 1489 1487 1484 1482 1480 1478 1475 1473 1470 1467 1465 1463 1457 1456 1453 1451 1454 1457 1463 1468 1471 1472 1470 1470 1469 1474 1470 1472 1476 1480 1480 1480 1482 1483 1488 1486 1490 1497 1502 1509
1503 1501 1498 1495 1493 1490 1487 1484 1481 1477 1474 1472 1469 1466 1464 1464 1468 1457 1455 1453 1453 1454 1454 1457 1462 1466 1468 1467 1464 1467 1462 1465 1469 1473 1479 1478 1479 1481 1483 1479 1480 1487 1496 1506 1514
1504 1501 1498 1495 1491 1488 1485 1482 1479 1476 1473 1470 1467 1464 1462 1460 1455 1457 1455 1454 1451 1451 1453 1455 1458 1461 1463 1461 1462 1462 1458 1461 1470 1475 1477 1478 1478 1479 1482 1481 1483 1486 1493 1501 1516
1502 1499 1496 1493 1489 1485 1482 1479 1476 1472 1469 1467 1465 1463 1462 1460 1449 1449 1449 1450 1450 1449 1450 1452 1455 1457 1458 1458 1457 1456 1458 1460 1464 1469 1473 1478 1478 1478 1482 1485 1484 1486 1489 1489 1495
1502 1498 1494 1490 1486 1482 1478 1475 1472 1468 1465 1463 1460 1459 1459 1449 1447 1443 1442 1442 1444 1447 1447 1449 1452 1456 1454 1456 1456 1456 1459 1460 1458 1465 1468 1472 1481 1478 1475 1481 1482 1485 1486 1487 1490
1500 1496 1492 1488 1483 1478 1474 1472 1468 1464 1461 1459 1457 1456 1449 1441 1440 1437 1435 1435 1436 1438 1442 1445 1449 1453 1453 1451 1451 1456 1459 1462 1449 1459 1466 1466 1481 1476 1475 1477 1477 1480 1483 1489 1496
1498 1494 1490 1486 1481 1476 1473 1469 1464 1461 1460 1458 1455 1454 1443 1439 1437 1436 1434 1433 1431 1430 1437 1443 1446 1449 1450 1454 1457 1455 1459 1455 1450 1449 1459 1466 1474 1472 1474 1477 1477 1480 1482 1487 1493
1497 1493 1489 1484 1479 1475 1471 1466 1462 1460 1459 1456 1454 1455 1441 1438 1434 1432 1431 1433 1431 1430 1435 1439 1443 1447 1451 1453 1447 1456 1454 1450 1449 1450 1454 1463 1466 1466 1470 1472 1474 1478 1483 1486 1491
1496 1492 1488 1483 1478 1475 1469 1464 1465 1462 1458 1455 1450 1448 1437 1433 1427 1418 1422 1427 1428 1430 1431 1432 1439 1436 1430 1441 1442 1444 1446 1443 1443 1441 1449 1456 1463 1462 1466 1472 1475 1477 1480 1481 1487
1494 1490 1487 1482 1479 1475 1471 1469 1473 1473 1460 1447 1442 1441 1433 1431 1423 1417 1416 1425 1425 1428 1427 1435 1428 1426 1434 1441 1445 1444 1442 1441 1436 1436 1443 1456 1460 1458 1461 1461 1462 1466 1474 1476 1482
1493 1489 1486 1482 1479 1477 1473 1474 1473 1471 1467 1445 1440 1437 1434 1430 1423 1417 1419 1416 1419 1422 1424 1425 1420 1423 1430 1437 1440 1440 1441 1438 1436 1439 1445 1451 1461 1460 1462 1463 1467 1471 1475 1477 1479
1491 1488 1485 1482 1480 1476 1474 1473 1471 1470 1468 1450 1439 1437 1433 1428 1421 1415 1414 1414 1412 1416 1419 1422 1419 1423 1428 1429 1432 1438 1434 1435 1435 1440 1452 1444 1469 1457 1457 1461 1461 1466 1470 1474 1478
1490 1487 1485 1481 1480 1476 1474 1470 1467 1470 1497 1446 1441 1438 1434 1429 1422 1412 1410 1409 1409 1408 1414 1415 1415 1418 1423 1423 1425 1426 1427 1434 1436 1441 1442 1448 1456 1449 1451 1456 1454 1461 1467 1471 1475
1489 1487 1484 1481 1477 1474 1470 1468 1468 1481 1493 1447 1445 1440 1433 1426 1420 1415 1409 1409 1406 1406 1406 1410 1407 1409 1411 1414 1418 1419 1425 1430 1436 1443 1458 1440 1447 1455 1440 1443 1450 1453 1458 1465 1470
1488 1487 1484 1480 1475 1472 1468 1467 1478 1498 1458 1455 1448 1443 1437 1431 1423 1420 1415 1413 1414 1413 1411 1406 1406 1405 1403 1412 1413 1416 1424 1445 1452 1457 1446 1434 1444 1433 1430 1434 1436 1440 1448 1458 1465
1487 1485 1483 1479 1475 1470 1467 1469 1496 1472 1464 1458 1451 1445 1440 1436 1429 1423 1419 1421 1420 1418 1412 1410 1413 1404 1402 1407 1415 1417 1414 1431 1431 1440 1435 1432 1442 1427 1419 1422 1425 1432 1438 1449 1458
1485 1484 1482 1479 1474 1470 1468 1494 1498 1481 1474 1463 1454 1449 1446 1444 1442 1428 1431 1432 1427 1426 1425 1415 1406 1396 1397 1400 1406 1416 1418 1410 1421 1426 1437 1435 1421 1414 1415 1422 1428 1431 1442 1448 1451
1485 1483 1482 1479 1475 1471 1474 1486 1484 1481 1474 1466 1463 1459 1459 1455 1448 1439 1436 1440 1435 1431 1430 1422 1413 1392 1392 1396 1400 1404 1404 1421 1426 1437 1431 1434 1428 1426 1423 1419 1421 1426 1433 1438 1444
1486 1486 1487 1482 1477 1475 1499 1491 1486 1483 1479 1475 1473 1466 1464 1460 1454 1443 1445 1439 1441 1434 1426 1422 1420 1395 1391 1395 1400 1406 1410 1411 1419 1426 1426 1440 1435 1408 1409 1409 1413 1417 1421 1428 1437
1490 1496 1493 1484 1485 1492 1499 1495 1491 1485 1481 1479 1481 1472 1469 1463 1456 1453 1452 1449 1446 1445 1432 1425 1423 1412 1392 1385 1384 1391 1401 1409 1425 1432 1435 1430 1429 1401 1400 1399 1404 1408 1413 1419 1426
1497 1499 1499 1491 1507 1507 1500 1498 1493 1489 1486 1481 1477 1475 1472 1465 1462 1453 1452 1447 1447 1446 1435 1432 1419 1409 1391 1391 1386 1389 1395 1398 1409 1421 1421 1434 1431 1398 1398 1399 1400 1403 1409 1416 1424
1502 1507 1503 1502 1507 1507 1505 1503 1498 1493 1488 1485 1481 1478 1474 1468 1462 1459 1454 1447 1445 1442 1436 1433 1420 1415 1399 1395 1394 1390 1391 1396 1401 1418 1422 1418 1407 1402 1400 1398 1399 1402 1406 1412 1418
1509 1515 1515 1518 1510 1511 1508 1507 1502 1497 1491 1487 1481 1481 1480 1473 1465 1460 1455 1450 1442 1441 1437 1438 1429 1416 1406 1399 1395 1385 1388 1392 1394 1402 1407 1407 1408 1419 1416 1410 1402 1400 1406 1411 1417
1516 1518 1518 1516 1515 1513 1512 1509 1505 1501 1497 1487 1487 1481 1478 1475 1470 1466 1463 1459 1449 1441 1439 1439 1433 1424 1411 1393 1389 1398 1398 1397 1403 1409 1397 1400 1416 1427 1420 1410 1409 1409 1408 1411 1414
1521 1521 1520 1520 1518 1516 1517 1513 1507 1503 1494 1491 1487 1480 1473 1468 1465 1460 1457 1455 1451 1452 1449 1442 1441 1433 1401 1402 1393 1405 1418 1414 1422 1425 1423 1418 1435 1432 1424 1420 1419 1415 1416 1414 1415